Theta_e
327 331 334 326 310 308 303 305 311 311 313 319 321 320 319 320 316 312 337 340 340 337 343 343 345 348 347 347 347 348 348 346 346 346 345 344 342 340 339 337 337 338 338 335 336 336 335 336 334
323 324 328 321 305 299 303 309 309 313 317 321 322 322 321 320 328 329 332 339 338 339 342 342 343 348 347 346 346 347 347 346 345 344 343 342 341 338 338 337 335 336 336 336 335 336 336 336 335
317 323 320 312 305 300 304 311 312 313 322 321 322 326 323 323 329 331 338 340 339 339 342 341 343 347 347 346 346 346 346 345 344 343 342 340 340 338 337 337 336 335 335 334 334 334 334 336 335
319 323 318 307 302 306 309 311 314 314 320 320 324 321 327 330 332 336 340 340 338 338 342 341 344 346 346 345 345 344 344 344 343 343 341 339 338 340 341 340 337 334 333 333 334 333 332 331 331
321 318 306 303 304 308 312 312 312 316 319 320 323 320 323 329 336 338 337 338 336 338 342 343 343 345 345 344 343 342 341 341 341 341 341 339 338 339 339 338 334 332 332 331 331 330 329 328 328
313 315 304 301 303 306 310 312 313 314 318 321 321 322 324 331 334 335 338 338 337 337 341 343 337 340 342 342 342 341 340 340 340 340 341 340 339 338 337 334 333 333 332 331 329 328 327 327 327
312 309 304 304 303 305 308 313 313 312 314 318 325 319 324 328 332 335 338 337 336 339 340 342 341 340 335 338 338 339 339 340 340 339 338 337 337 337 336 335 334 332 332 330 328 327 326 327 327
313 310 304 305 303 304 310 312 313 313 314 325 327 318 321 330 333 334 336 335 335 337 338 340 340 340 340 339 332 334 335 336 336 335 332 330 330 332 331 329 332 332 331 330 327 326 325 326 326
311 306 302 303 304 306 311 310 313 315 316 323 325 324 327 332 332 331 329 329 331 333 336 338 340 338 339 338 334 330 330 332 331 329 326 325 331 331 329 327 330 334 332 329 327 327 326 327 325
308 306 305 309 310 308 310 309 311 313 315 319 323 325 329 330 329 327 326 325 328 330 331 335 339 338 339 337 338 337 335 335 334 332 332 331 331 331 329 325 326 330 329 330 329 329 330 326 327
307 305 311 309 310 311 309 307 309 311 311 318 320 323 324 324 327 326 326 328 326 329 332 333 336 338 338 338 338 337 336 336 334 333 332 331 330 331 330 331 329 330 324 330 329 330 330 329 328
303 306 308 311 310 307 307 309 308 310 313 316 319 326 325 324 325 325 328 327 327 327 330 332 333 335 337 338 338 337 336 336 333 332 332 331 330 330 330 330 329 330 330 329 330 329 330 329 328
305 306 306 309 307 307 306 307 309 309 313 313 318 322 325 326 325 326 330 328 328 328 329 331 333 333 334 335 337 337 336 335 334 332 332 331 330 329 329 329 329 329 329 328 328 328 328 328 329
300 302 308 309 307 307 304 307 306 310 314 312 316 318 323 326 327 328 328 328 327 328 328 331 331 332 333 333 337 337 337 335 334 332 332 331 330 329 329 328 328 328 328 329 329 329 328 328 328
299 299 305 307 307 305 308 304 303 313 313 314 317 319 320 325 328 328 329 329 330 329 330 330 331 333 332 333 333 337 337 336 333 332 333 332 330 330 329 329 329 329 330 329 329 329 329 328 328
297 298 297 305 307 307 306 301 309 312 311 312 314 318 321 321 326 329 330 330 331 331 330 331 331 331 332 331 332 337 337 336 335 333 333 332 331 331 330 329 329 330 330 329 328 329 328 329 329
293 289 293 298 306 306 304 301 309 313 311 310 312 314 318 322 323 327 330 331 331 331 331 331 330 330 331 331 332 335 336 336 334 334 334 333 332 332 331 331 331 331 330 329 328 328 329 328 329
284 287 290 293 298 300 302 301 307 309 310 309 312 313 315 318 323 326 327 331 332 332 332 331 330 330 331 331 334 335 335 334 335 334 334 334 334 333 332 331 331 332 330 330 329 329 330 329 329
289 288 288 291 295 292 295 298 304 308 309 307 309 311 313 315 321 327 326 327 331 332 332 332 330 330 331 329 329 330 331 333 334 335 335 335 334 333 330 329 329 330 328 331 331 331 329 328 329
287 286 286 290 292 292 292 293 298 303 307 309 310 310 310 312 316 323 329 326 326 329 331 332 332 330 330 331 331 334 333 334 335 335 335 333 331 329 329 328 328 329 328 330 331 331 327 325 326
282 283 284 285 290 292 290 289 292 298 302 306 309 311 312 311 312 314 325 329 328 327 328 330 331 333 334 336 334 333 333 333 333 334 333 333 332 333 332 332 333 333 332 331 332 332 327 324 326
278 284 285 286 285 282 290 280 290 294 296 301 305 308 310 311 311 312 316 326 329 330 330 330 331 332 334 335 333 331 330 329 333 333 333 334 333 332 331 331 331 331 330 328 329 328 326 325 322
279 287 286 285 284 284 286 282 286 292 292 296 301 306 310 312 313 312 311 319 327 331 332 332 331 331 332 333 333 332 331 333 334 332 331 330 331 331 330 329 329 329 329 329 328 327 326 326 324
286 284 283 284 282 276 282 283 284 287 292 296 301 303 307 310 312 315 315 314 315 327 331 333 331 330 332 332 332 332 331 332 329 329 328 330 331 330 327 329 329 329 329 330 329 328 327 325 325
284 280 273 272 273 272 283 282 285 290 294 297 298 302 305 309 311 311 313 312 315 319 325 330 330 328 330 331 331 331 331 331 330 329 328 327 323 317 314 316 316 316 316 317 321 325 325 325 324
281 280 274 268 271 274 281 278 284 293 295 298 298 299 302 306 310 311 311 312 315 316 320 323 325 323 327 328 324 323 321 318 315 314 313 312 312 310 310 311 312 311 311 312 316 316 317 317 319
279 277 282 276 277 274 279 283 288 292 292 295 297 298 300 303 304 307 309 311 313 313 313 316 315 312 313 314 313 313 311 309 309 307 305 303 303 303 304 305 306 306 307 308 310 312 310 313 313
282 283 276 277 269 268 276 279 280 286 289 292 294 297 298 298 299 301 303 306 306 304 306 307 308 307 309 309 308 306 304 303 301 300 299 299 298 299 300 300 301 300 301 302 303 303 302 304 304
280 278 278 280 277 272 271 277 287 287 289 289 292 294 296 297 297 298 299 301 301 300 301 300 301 301 301 302 302 301 299 298 297 296 296 296 297 297 297 297 297 297 297 298 298 298 298 298 299
284 281 280 274 272 276 276 277 289 289 290 291 292 293 293 294 294 294 295 297 297 296 296 295 296 296 297 298 299 297 295 294 294 294 294 294 293 294 294 294 294 294 293 293 294 294 294 294 294
Wind_Speed
6 3 3 5 6 4 4 4 3 3 3 2 3 3 1 5 3 4 7 7 15 17 17 17 13 15 14 13 14 15 15 16 17 17 17 16 16 15 16 16 13 13 15 13 14 13 13 13 12
6 4 4 2 5 7 6 2 6 3 3 5 5 4 3 4 4 7 11 9 19 17 17 16 11 15 15 15 14 14 14 15 16 15 15 15 15 14 15 16 13 12 13 12 13 13 12 12 12
2 6 4 4 5 7 3 3 6 3 6 4 3 2 2 4 4 11 4 17 20 17 16 16 12 15 15 14 14 13 13 13 13 14 14 13 14 14 12 14 14 13 11 11 11 12 12 12 10
2 4 3 6 9 5 2 2 3 4 5 3 2 4 4 4 5 7 13 19 18 17 16 17 14 16 15 14 13 13 12 12 12 12 13 13 12 9 10 16 14 13 10 10 10 10 10 10 10
1 4 5 5 7 2 4 3 3 7 4 4 5 5 4 3 3 10 16 17 18 17 15 17 14 16 15 14 13 12 11 11 11 10 11 13 12 8 8 12 12 10 9 9 9 8 8 8 8
4 4 6 10 8 3 4 3 4 7 4 4 5 6 5 4 8 12 15 16 16 17 16 16 12 12 12 13 12 12 12 11 11 11 11 14 12 11 10 10 11 10 8 8 7 7 7 6 6
8 6 9 7 5 5 5 3 5 3 5 6 1 6 5 8 9 12 15 15 15 15 16 15 16 14 10 10 10 10 11 10 8 10 9 11 11 12 10 10 9 9 8 6 5 5 4 4 4
5 5 7 7 9 8 4 2 2 5 3 2 1 4 5 12 13 12 13 14 14 14 14 15 15 15 14 12 9 9 10 9 8 8 8 6 7 8 8 7 8 9 7 5 4 3 2 2 2
2 8 11 13 10 7 5 6 3 1 3 3 2 2 3 19 15 12 14 13 13 12 14 13 15 14 14 13 11 8 8 8 7 8 7 8 7 8 8 5 6 7 6 5 3 2 1 1 3
8 11 17 8 12 6 5 4 2 4 7 7 6 6 11 18 15 15 16 16 18 18 14 13 14 15 14 10 12 11 10 8 9 8 10 7 6 6 5 5 5 4 3 2 2 2 2 5 3
7 14 16 9 8 7 6 5 3 5 7 7 10 12 14 16 16 16 16 16 16 17 14 14 14 14 15 11 9 6 6 6 6 8 8 7 6 5 5 4 5 4 4 4 4 3 3 4 4
8 12 11 10 7 6 7 3 5 8 2 3 3 11 16 19 18 18 19 18 17 16 16 17 15 13 14 9 9 9 7 6 6 7 9 6 5 5 4 4 4 4 3 4 4 3 4 5 6
11 10 7 11 5 9 3 9 8 9 6 4 2 10 16 17 17 15 16 15 16 17 14 16 16 14 13 12 10 9 9 7 7 7 8 7 6 5 4 4 4 4 3 4 4 4 4 5 6
5 9 9 6 12 7 8 12 6 9 7 8 7 10 14 17 19 17 17 17 18 17 16 15 16 13 13 12 13 10 9 9 8 7 7 9 6 5 5 5 5 4 4 4 4 5 5 5 5
5 9 8 13 8 9 8 20 14 19 8 8 8 8 12 15 17 21 18 18 19 16 17 18 16 12 11 11 11 10 9 9 8 8 9 9 9 8 7 5 5 5 4 5 5 6 5 6 6
5 6 13 10 13 8 13 24 22 21 17 20 18 11 10 15 16 17 17 17 18 17 18 17 13 14 14 10 8 9 10 9 8 8 8 11 11 10 8 6 6 5 4 5 5 5 5 6 6
7 12 18 13 8 10 18 19 21 18 19 22 22 18 14 12 16 18 18 18 18 18 18 17 15 15 14 11 10 12 11 10 8 8 8 10 11 10 9 7 7 6 5 5 5 5 5 6 6
11 10 10 12 1 8 15 20 18 8 19 21 22 22 18 16 17 17 19 18 17 17 17 16 14 14 14 8 11 9 9 9 8 8 8 11 9 11 9 7 8 7 6 6 6 7 5 6 7
9 8 9 7 8 13 13 19 23 21 16 14 20 19 19 19 19 14 17 18 18 18 18 17 16 14 10 9 10 10 11 10 10 9 12 11 10 10 9 7 7 7 7 7 7 6 7 5 4
10 13 15 13 14 12 16 21 19 22 22 23 20 18 20 19 17 13 16 18 20 20 19 19 18 17 13 10 10 9 10 10 9 9 10 11 10 10 8 9 8 9 7 10 9 8 4 3 3
11 14 10 7 12 17 17 29 28 25 23 22 23 23 21 19 19 17 16 20 19 19 21 20 19 19 17 17 11 9 6 6 8 8 8 9 12 12 13 12 10 9 8 7 8 7 7 4 3
9 6 13 12 6 7 9 15 15 21 29 28 24 22 23 21 18 16 16 16 19 21 17 19 19 19 17 18 14 16 11 11 9 9 8 8 7 8 7 6 5 4 3 5 5 4 6 5 6
4 6 3 8 12 10 16 12 13 19 19 21 26 25 23 23 21 20 18 17 17 15 16 17 18 18 18 17 16 13 13 10 6 5 7 6 6 6 6 5 6 7 5 6 6 6 7 6 5
1 4 6 7 8 14 19 16 12 17 13 13 17 22 24 24 21 20 18 15 14 12 14 15 18 18 18 18 15 15 15 11 8 5 4 3 2 2 3 2 4 5 5 6 6 6 6 5 5
5 4 4 6 8 12 10 16 19 10 9 6 5 9 16 20 21 20 19 13 12 12 13 14 17 17 17 17 16 14 11 11 8 5 3 4 3 2 4 5 4 4 5 5 4 2 1 2 2
12 13 6 8 8 9 16 13 7 2 12 11 12 14 9 12 16 18 16 15 12 9 9 11 13 9 12 12 8 8 9 6 6 8 6 5 4 4 3 4 4 5 4 3 3 2 2 2 1
5 12 17 12 15 7 7 20 17 9 10 8 7 7 12 5 7 10 9 10 8 7 6 7 9 8 9 10 9 10 10 10 8 8 6 7 3 5 7 7 6 7 6 6 5 3 4 4 5
13 3 5 8 7 10 9 17 12 3 14 17 9 9 6 4 2 3 4 7 8 7 8 10 10 10 8 8 8 8 9 9 10 9 7 8 4 6 6 6 8 7 7 7 6 5 6 6 4
6 6 8 5 6 8 8 8 2 2 6 10 10 6 6 4 2 1 5 5 8 10 9 10 11 12 11 7 9 12 10 9 6 10 8 7 6 6 5 6 6 5 4 6 7 7 8 8 6
6 15 15 9 11 11 13 18 2 4 5 7 12 8 3 0 2 4 5 7 7 9 10 10 10 11 11 10 9 9 10 10 7 9 9 8 6 6 6 7 7 6 7 8 7 6 6 6 6
Wind_Direction
328 275 246 231 224 244 213 187 295 217 209 104 135 243 175 28 353 42 135 138 143 153 147 155 152 140 134 141 142 140 124 124 120 115 113 115 110 107 107 103 101 106 103 100 91 81 82 95 93
325 267 224 202 242 211 173 169 214 304 344 131 133 153 176 96 74 114 140 168 153 153 154 151 147 137 133 134 139 135 134 126 120 119 118 115 117 113 113 110 109 105 105 101 91 83 80 101 95
278 287 242 216 228 222 173 171 306 299 153 188 155 355 8 85 93 151 143 161 153 154 157 141 148 139 136 135 132 132 125 126 129 125 122 118 119 120 125 130 114 108 104 101 96 87 84 79 84
317 219 164 237 206 214 254 43 339 189 191 242 183 142 118 13 141 167 150 154 155 156 158 143 151 147 145 142 138 133 132 134 137 134 130 123 121 117 119 119 110 108 102 101 97 92 87 85 82
295 250 216 224 225 232 236 277 288 197 179 176 201 136 106 84 106 137 155 158 155 159 157 157 151 150 151 148 144 140 139 142 141 143 142 135 136 117 126 100 105 118 108 106 103 99 92 87 82
225 277 226 219 204 221 247 217 266 225 196 150 200 155 113 109 137 146 162 161 158 158 158 154 152 150 151 152 150 149 147 149 150 152 155 145 135 130 126 129 126 123 122 116 110 105 101 95 90
261 233 238 237 229 241 237 171 239 243 218 205 114 172 105 160 153 153 161 160 162 160 164 162 166 157 151 155 155 154 153 151 151 144 135 142 147 137 141 130 135 138 132 130 125 116 103 93 82
260 247 217 221 216 236 175 223 301 242 208 82 205 182 157 160 152 154 162 161 163 168 173 168 169 171 171 169 159 159 155 152 152 135 132 134 138 147 133 142 151 155 153 156 152 142 120 69 52
257 229 229 223 206 208 163 223 155 338 229 191 142 22 51 139 146 151 162 166 167 184 175 175 173 177 176 175 167 162 160 160 151 147 144 146 181 175 164 140 143 152 173 180 186 198 163 300 224
225 229 232 228 218 207 181 232 182 231 196 198 169 93 132 148 157 165 176 175 183 177 185 179 188 179 178 179 172 183 173 178 181 182 178 195 190 192 203 173 184 195 197 216 244 292 310 254 320
187 233 234 231 213 209 212 215 194 235 226 216 206 157 160 166 173 178 184 189 193 181 178 190 187 188 182 182 181 185 183 185 187 188 187 190 190 186 206 203 205 220 190 241 234 240 270 319 312
220 232 242 242 203 193 212 199 212 223 281 76 108 159 166 178 184 186 193 187 189 190 188 191 193 188 192 184 190 188 190 190 189 191 193 192 201 204 211 216 218 230 233 258 262 275 295 295 287
236 218 245 243 230 218 180 214 232 226 209 198 142 174 185 188 191 191 200 196 190 192 197 197 194 196 191 194 194 195 195 194 198 195 197 204 206 207 211 218 227 242 255 260 270 275 280 288 293
334 282 265 282 230 223 213 231 207 222 233 225 205 198 201 197 196 191 197 195 200 191 194 201 202 199 201 198 196 194 195 194 198 203 206 206 212 214 216 228 233 240 245 265 270 276 284 281 282
291 281 245 231 231 231 213 241 229 238 204 212 212 209 207 208 198 205 198 198 196 199 191 202 202 199 203 208 207 203 201 200 198 200 205 209 212 220 223 233 239 245 243 251 262 262 263 274 275
251 234 238 201 204 216 207 242 224 232 229 239 238 222 208 212 210 208 204 204 200 197 199 194 198 198 201 204 205 212 205 204 206 204 203 207 214 219 221 232 239 243 248 248 251 259 267 275 280
221 247 229 239 215 229 212 242 237 230 229 238 241 232 225 219 212 210 206 205 201 201 199 198 197 200 202 198 207 218 211 210 211 211 210 211 216 220 226 231 237 232 233 237 248 258 261 279 285
226 223 222 224 152 271 248 243 249 237 228 233 237 238 228 228 222 207 205 204 203 204 202 202 199 199 199 199 208 212 217 216 213 215 220 217 215 217 224 233 236 226 229 234 231 247 261 275 293
285 259 255 269 278 321 268 257 249 248 234 236 242 239 237 225 232 208 203 199 201 205 206 203 200 196 187 192 205 205 212 215 213 213 214 218 218 214 214 223 235 232 232 240 242 247 253 267 271
263 261 256 269 276 276 273 270 265 259 252 245 239 235 236 237 233 213 200 199 201 201 205 209 202 200 188 188 194 209 213 217 223 213 211 207 210 208 208 214 217 217 225 235 239 237 244 234 207
247 256 256 289 306 271 275 276 260 257 249 249 246 245 241 236 232 222 206 204 203 204 203 205 207 204 198 199 197 198 212 218 209 214 218 210 210 213 209 215 224 225 222 237 242 237 216 242 212
264 251 248 264 285 265 194 277 250 229 239 238 238 236 237 235 233 228 217 212 207 212 203 203 203 204 201 198 195 198 199 201 204 204 206 216 202 215 217 222 216 225 213 223 229 214 219 221 242
277 325 272 254 257 293 247 262 256 241 253 241 233 233 235 234 232 222 212 212 213 212 208 208 203 204 199 199 199 196 208 212 204 191 179 183 191 211 218 219 222 224 221 233 226 216 220 223 236
271 279 241 255 260 249 235 230 262 233 248 259 234 238 234 231 234 229 222 224 231 215 209 205 206 204 200 200 203 203 206 201 182 166 175 173 138 114 47 266 240 234 233 242 244 239 241 240 236
205 202 221 208 205 244 198 212 252 286 295 261 287 278 257 236 233 236 226 214 211 206 215 208 204 204 200 200 199 199 201 194 175 147 138 126 110 81 53 58 51 65 59 50 24 22 336 295 271
211 210 218 234 210 257 206 231 231 327 248 268 288 269 273 257 241 238 225 211 190 187 189 201 203 180 193 192 151 124 110 106 84 73 69 57 61 36 39 68 76 66 58 70 66 61 48 46 40
179 214 243 291 281 261 231 245 264 262 278 264 271 275 255 257 261 248 221 189 171 154 148 147 131 116 121 121 118 114 115 108 108 106 114 113 81 84 51 34 45 39 38 31 42 58 47 36 34
243 359 206 205 244 247 227 244 247 225 237 249 245 259 260 305 246 205 194 153 125 107 103 98 103 106 107 117 118 110 105 105 119 102 80 84 76 66 56 51 52 41 40 39 42 43 39 43 36
183 216 222 290 255 270 263 240 123 8 6 321 310 322 325 320 328 219 137 126 122 112 104 102 101 102 94 85 108 109 89 87 68 106 110 76 88 105 113 98 88 72 66 53 53 46 32 35 20
280 255 235 235 241 238 265 265 272 187 1 332 318 327 311 232 125 129 122 119 109 105 106 98 96 96 102 106 106 97 102 104 115 79 96 116 121 91 97 88 80 61 46 49 52 48 38 37 31